SCP
0 0 0 0 0 0 0 0 0 0 0 0 0 0 0 0 0 0 0 0 0 0 0 0 0 0 0 0 0 0 0 0 0 0 0 0 0 0 0 0 0 -0 0
0 0 0 0 0 0 0 0 0 0 0 0 0 0 0 0 0 0 0 0 0 0 0 0 0 0 0 0 0 0 0 0 0 0 0 0 0 0 0 0 0 0 0
0 0 0 0 0 0 0 0 0 0 0 0 0 0 0 0 0 0 0 0 0 0 0 0 0 0 0 0 0 0 0 0 0 0 0 0 0 0 0 0 0 0 0
0 0 0 0 0 0 0 0 0 0 0 0 0 0 0 0 0 0 0 0 0 0 0 0 0 0 0 0 0 0 0 0 0 0 0 0 0 0 0 0 0 0 0
0 0 0 0 0 0 0 0 0 0 0 0 0 0 0 0 0 0 0 0 0 0 0 0 0 0 0 0 0 0 0 0 0 0 0 0 0 0 0 0 0 0 0
0 0 0 0 0 0 0 0 0 0 0 0 0 0 0 0 0 0 0 0 0 0 0 0 0 0 0 0 0 0 0 0 0 0 0 0 0 0 0 0 0 0 0
0 0 0 0 0 0 0 0 0 0 0 0 0 0 0 0 0 0 0 0 0 0 0 0 0 0 0 0 0 0 0 0 0 0 0 0 0 0 0 0 0 0 0
0 0 0 0 0 0 0 0 0 0 0 0 0 0 0 0 0 0 0 0 0 0 0 0 0 0 0 0 0 0 0 0 0 0 0 0 0 0 0 0 0 0 0
0 0 0 0 0 0 0 0 0 0 0 0 0 0 0 0 0 0 0 0 0 0 0 0 0 0 0 0 0 0 0 0 0 0 0 0 0 0 0 0 0 0 0
0 0 0 0 0 0 0 0 0 0 0 0 0 0 0 0 0 0 0 0 0 0 0 0 0 0 0 0 0 0 0 0 0 0 0 0 0 0 0 0 0 0 0
0 0 0 0 0 0 0 0 0 0 0 0 0 0 0 0 0 0 0 0 0 0 0 0 0 0 0 0 0 0 0 0 0 0 0 0 0 0 0 0 0 0 0
0 0 0 0 0 0 0 0 0 0 0 0 0 0 0 0 0 0 0 0 0 0 0 0 0 0 0 0 0 0 0 0 0 0 0 0 0 0 0 0 0 0 0
0 0 0 0 0 0 0 0 0 0 0 0 0 0 0 0 0 0 0 0 0 0 0 0 0 0 0 0 0 0 0 0 0 0 0 0 0 0 0 0 0 0 0
0 0 0 0 0 0 0 0 0 0 0 0 0 0 0 0 0 0 0 0 0 0 0 0 0 0 0 0 0 0 0 0 0 0 0 0 0 0 0 0 0 0 0
0 0 0 0 0 0 0 0 0 0 0 0 0 0 0 0 0 0 0 0 0 0 0 0 0 0 0 0 0 0 0 0 0 0 0 0 0 0 0 0 0 0 0
0 0 0 0 0 0 0 0 0 0 0 0 0 0 0 0 0 0 0 0 0 0 0 0 0 0 0 0 0 0 0 0 0 0 0 0 0 0 0 0 0 0 0
0 0 0 0 0 0 0 0 0 0 0 0 0 0 0 0 0 0 0 0 0 0 0 0 0 0 0 0 0 0 0 0 0 0 0 0 0 0 0 0 0 0 0
0 0 0 0 0 0 0 0 0 0 0 0 0 0 0 0 0 0 0 0 0 0 0 0 0 0 0 0 0 0 0 0 0 0 0 0 0 0 0 0 0 0 0
0 0 0 0 0 0 0 0 0 0 0 0 0 0 0 0 0 0 0 0 0 0 0 0 0 0 0 0 0 0 0 0 0 0 0 0 0 0 0 0 0 0 0
0 0 0 0 0 0 0 0 0 0 0 0 0 0 0 0 0 0 0 0 0 0 0 0 0 0 0 0 0 0 0 0 0 0 0 0 0 0 0 0 0 0 0
0 0 0 0 0 0 0 0 0 0 0 0 0 0 0 0 0 0 0 0 0 0 0 0 0 0 0 0 0 0 0 0 0 0 0 0 0 0 0 0 0 0 0
0 0 0 0 0 0 0 0 0 0 0 0 0 0 0 0 0 0 0 0 0 0 0 0 0 0 0 0 0 0 0 0 0 0 0 0 0 0 0 0 0 0 0
0 0 0 0 0 0 0 0 0 0 0 0 0 0 0 0 0 0 0 0 0 0 0 0 0 0 0 0 0 0 0 0 0 0 0 0 0 0 0 0 0 0 0
0 0 0 0 0 0 0 0 0 0 0 0 0 0 0 0 0 0 0 0 0 0 0 0 0 0 0 0 0 0 0 0 0 0 0 0 0 0 0 0 0 0 0
0 0 0 0 0 0 0 0 0 0 0 0 0 0 0 0 0 0 0 0 0 0 0 0 0 0 0 0 0 0 0 0 0 0 0 0 0 0 0 0 0 0 0
0 0 0 0 0 0 0 0 0 0 0 0 0 0 0 0 0 0 0 0 0 0 0 0 0 0 0 0 0 0 0 0 0 0 0 0 0 0 0 0 0 0 0
Wind_Speed_500mb
82 80 83 84 81 79 79 76 75 74 75 69 62 57 51 44 45 42 39 39 39 33 28 22 19 16 18 20 20 20 17 14 13 20 27 35 41 47 52 54 57 60 63
80 80 78 76 74 73 74 74 73 73 70 69 65 60 54 48 49 49 45 42 37 32 26 22 20 19 19 19 18 15 14 14 18 24 29 36 42 47 52 56 58 58 61
69 69 70 70 70 72 72 68 67 69 68 65 67 60 56 57 54 49 45 41 37 31 26 25 21 20 19 16 12 9 11 18 23 28 33 38 41 46 51 55 59 60 60
61 64 68 72 73 72 72 71 68 67 66 68 67 62 57 55 53 50 48 42 36 32 29 24 21 19 15 11 8 7 13 19 26 32 35 38 42 47 53 59 63 64 63
59 62 64 66 68 69 70 68 65 68 70 64 67 61 55 55 53 51 45 40 36 32 27 23 21 16 13 11 8 10 16 21 26 30 35 38 42 48 55 59 62 65 64
57 56 55 56 56 58 61 68 69 72 70 71 63 57 59 56 53 48 43 38 33 28 24 21 19 17 15 12 10 12 17 21 25 30 35 39 43 47 52 55 58 61 62
53 52 52 50 50 53 60 67 70 75 74 65 62 61 60 58 54 50 42 34 28 26 22 20 20 20 16 13 12 16 18 22 25 28 32 37 41 46 49 50 48 51 54
55 54 54 54 55 60 64 71 75 73 67 67 65 64 62 59 54 46 37 31 28 25 20 21 23 20 16 14 15 17 18 21 24 27 31 34 38 41 43 47 49 54 56
59 57 58 59 59 65 71 72 72 73 72 70 68 67 64 60 52 41 35 30 26 19 25 25 24 21 18 18 18 18 20 22 26 29 33 37 37 38 40 45 47 50 58
62 58 58 58 63 68 71 72 72 70 71 70 69 66 60 53 47 41 35 28 20 28 28 29 27 23 22 21 21 21 22 24 27 30 32 35 35 38 37 40 45 49 46
60 56 58 60 64 67 70 72 73 73 72 72 69 66 60 52 45 38 31 21 26 35 34 32 28 27 25 24 23 24 26 29 32 35 36 37 37 36 37 39 42 46 48
58 59 63 66 69 71 72 73 75 76 76 74 70 66 60 53 46 38 26 24 35 38 37 34 32 30 28 27 28 29 32 36 37 39 41 42 41 40 38 41 42 45 47
61 66 68 69 71 72 76 80 80 77 75 73 71 67 61 53 43 38 27 34 42 45 42 38 35 33 33 34 34 35 39 40 42 44 44 46 45 44 45 47 49 47 52
64 68 69 72 75 77 79 79 80 81 79 75 72 65 58 48 48 32 33 44 52 50 47 42 40 41 41 41 41 43 44 45 46 46 47 48 49 49 49 48 51 51 54
56 66 71 74 77 78 79 80 79 76 73 71 68 59 48 49 44 42 43 55 56 50 49 48 49 49 48 47 47 48 48 48 49 49 49 49 49 50 51 49 48 48 49
43 54 64 70 74 76 78 77 75 72 67 65 58 45 48 44 49 47 56 60 56 56 57 56 55 54 54 53 53 52 50 51 51 50 49 49 50 52 52 49 46 46 47
30 41 54 63 69 73 76 77 77 73 68 63 54 48 55 58 64 54 62 61 60 64 68 64 61 60 59 58 56 54 53 52 50 49 49 49 50 51 49 48 46 44 42
25 33 43 53 60 64 65 67 68 68 71 70 76 70 64 72 74 66 63 64 68 73 75 67 64 63 62 60 58 58 55 53 51 51 50 49 49 50 47 45 44 44 43
19 27 37 48 57 63 66 71 76 80 82 80 73 76 82 84 81 70 67 71 71 74 73 68 66 65 63 62 60 59 56 54 53 53 50 48 47 47 44 43 44 40 41
20 25 31 39 47 57 64 72 77 78 81 81 79 77 80 78 79 76 70 73 76 74 73 69 67 66 66 64 62 61 59 56 56 54 51 48 47 46 45 43 42 42 40
17 23 27 32 39 45 51 58 67 74 78 80 78 76 76 79 78 74 75 75 74 72 70 68 71 69 68 66 66 65 62 60 58 55 53 50 49 46 44 44 42 42 41
17 22 28 32 36 40 45 50 56 62 67 71 72 74 75 81 81 82 84 85 80 79 75 74 79 77 73 70 69 67 65 60 57 56 55 51 49 46 45 44 43 43 42
23 24 27 32 37 42 46 50 54 58 62 66 69 72 73 78 81 81 84 82 83 82 77 84 86 79 74 72 72 69 68 61 55 56 55 52 49 46 46 46 45 46 44
25 29 32 34 37 42 46 51 55 59 63 66 69 71 74 76 78 81 82 82 82 80 81 82 85 82 75 73 70 72 70 61 58 56 56 53 50 48 48 48 48 48 46
27 28 30 33 37 41 46 51 55 59 64 68 72 75 77 78 79 80 81 82 81 79 83 84 81 76 74 75 71 70 68 62 58 53 55 56 53 50 52 52 50 49 48
39 39 40 42 44 46 49 52 55 59 63 66 69 71 73 73 74 75 75 74 74 76 75 75 75 77 76 71 70 68 66 65 58 53 53 58 57 54 53 53 52 51 49
Wind_Direction_500mb
229 232 233 235 234 233 233 232 229 226 224 227 224 228 237 237 230 220 230 229 225 229 221 222 234 250 267 277 289 304 319 334 347 341 348 349 354 357 356 355 357 358 355
229 226 229 232 232 231 232 232 229 225 224 225 221 220 229 227 229 227 233 222 219 211 213 224 238 251 264 273 289 306 320 344 354 351 347 349 349 348 346 348 350 354 352
229 228 224 226 229 230 230 229 225 220 220 217 217 215 225 223 220 221 217 211 204 207 218 228 236 252 257 269 278 298 333 344 348 343 343 343 341 340 341 341 345 348 351
226 227 228 225 227 230 231 228 220 219 214 217 212 215 218 220 214 210 204 202 206 212 219 226 238 244 248 255 260 310 330 339 338 339 339 339 338 337 337 338 340 343 345
233 231 232 232 227 226 224 218 209 211 209 211 214 206 213 207 203 199 200 204 210 215 219 230 239 241 245 237 272 308 327 327 332 334 333 335 332 334 336 336 336 336 339
234 232 227 224 220 212 207 201 200 202 205 207 205 210 202 197 195 197 203 207 211 218 227 235 237 239 224 239 266 302 313 320 328 332 330 330 331 332 333 332 333 332 334
229 226 221 214 210 200 193 194 197 202 203 202 206 199 195 195 197 199 201 207 217 225 231 236 234 224 230 247 277 293 304 317 322 326 328 328 329 332 330 327 325 322 320
226 222 217 211 205 201 199 201 202 201 203 206 197 194 195 197 198 199 203 211 219 229 232 238 231 231 239 260 275 287 303 307 313 319 325 325 328 330 327 322 321 318 319
225 221 219 215 209 203 203 203 203 204 202 197 196 195 196 199 199 201 208 212 222 244 245 235 231 234 248 261 271 286 292 299 308 313 319 323 325 322 316 313 315 313 316
226 222 222 219 213 209 208 205 205 204 201 196 196 198 199 201 202 205 205 213 240 245 243 233 230 241 251 260 269 277 283 292 299 302 307 313 314 311 304 302 307 303 306
226 223 221 218 216 211 211 210 206 201 198 198 198 200 200 201 205 205 210 222 239 243 236 234 236 243 253 261 272 281 283 290 293 298 304 306 307 305 304 302 299 295 297
227 224 221 217 213 211 210 207 203 202 200 200 201 202 203 202 202 209 213 229 236 234 236 235 238 246 256 265 272 279 281 285 289 293 297 302 306 306 306 305 301 295 291
227 224 222 218 213 208 206 206 204 203 205 205 206 207 206 201 208 210 238 234 233 233 234 237 242 249 256 261 267 272 277 281 283 286 291 298 301 304 308 309 306 301 295
227 225 222 218 212 208 208 209 210 209 208 209 211 209 206 211 210 229 231 237 235 234 235 239 244 251 256 262 266 269 273 277 279 283 288 292 298 303 307 308 305 305 301
230 226 221 217 215 213 213 214 214 217 218 217 215 212 213 221 226 252 235 243 238 238 238 241 246 250 257 263 266 269 273 277 280 282 285 290 294 299 304 305 303 301 300
235 228 223 221 218 218 219 218 219 221 221 217 211 224 228 232 237 243 252 241 238 239 243 245 250 254 258 262 265 269 271 274 275 278 281 286 292 297 301 302 301 300 300
238 232 226 223 224 224 223 224 224 219 218 215 222 236 248 233 248 245 249 241 241 243 247 249 252 256 259 262 265 267 270 271 274 278 281 285 290 295 298 299 299 298 299
227 224 228 231 231 233 235 235 233 229 225 226 237 248 231 237 243 249 245 243 243 247 253 255 257 258 259 261 264 266 268 270 273 276 279 284 290 293 294 295 295 297 297
251 246 239 235 234 236 236 234 234 236 241 244 248 242 237 243 242 246 246 250 253 256 260 260 258 258 259 261 262 265 267 269 271 273 276 281 286 287 288 291 291 293 293
245 242 242 246 247 247 246 244 245 247 246 247 254 247 247 244 249 246 242 253 258 260 262 261 260 258 259 260 262 263 264 266 267 269 275 280 283 284 287 286 288 290 290
262 256 255 256 256 256 255 254 253 252 253 256 256 253 253 253 256 255 257 255 257 259 261 262 262 261 261 261 262 263 264 264 266 269 275 278 278 279 280 283 286 288 289
287 269 260 256 256 256 257 257 258 258 258 259 259 258 258 257 257 257 257 258 259 260 261 261 262 262 264 264 264 263 263 263 265 269 271 272 274 275 277 279 283 283 285
301 292 283 276 270 265 262 260 260 259 260 262 262 263 261 262 263 262 262 262 263 262 262 267 264 263 263 262 262 263 264 263 263 264 268 270 270 271 273 277 279 280 282
301 296 292 287 281 277 272 269 266 265 265 264 264 265 265 265 265 266 267 266 264 263 265 263 263 265 265 263 261 262 262 260 260 262 265 267 269 271 271 273 275 277 278
309 303 297 293 288 284 281 279 276 273 270 268 267 266 267 267 268 268 267 266 266 264 264 265 265 264 260 260 260 257 256 258 260 261 263 267 268 267 268 271 273 275 277
301 298 297 295 293 290 286 283 280 277 275 274 273 272 271 270 270 270 270 269 268 267 266 264 262 262 261 258 257 258 258 259 257 261 265 265 266 267 268 269 270 271 272
Wind_Speed_850mb
82 80 83 84 81 79 79 76 75 74 75 69 62 57 51 44 45 42 39 39 39 33 28 22 19 16 18 20 20 20 17 14 13 20 27 35 41 47 52 54 57 60 63
80 80 78 76 74 73 74 74 73 73 70 69 65 60 54 48 49 49 45 42 37 32 26 22 20 19 19 19 18 15 14 14 18 24 29 36 42 47 52 56 58 58 61
69 69 70 70 70 72 72 68 67 69 68 65 67 60 56 57 54 49 45 41 37 31 26 25 21 20 19 16 12 9 11 18 23 28 33 38 41 46 51 55 59 60 60
61 64 68 72 73 72 72 71 68 67 66 68 67 62 57 55 53 50 48 42 36 32 29 24 21 19 15 11 8 7 13 19 26 32 35 38 42 47 53 59 63 64 63
59 62 64 66 68 69 70 68 65 68 70 64 67 61 55 55 53 51 45 40 36 32 27 23 21 16 13 11 8 10 16 21 26 30 35 38 42 48 55 59 62 65 64
57 56 55 56 56 58 61 68 69 72 70 71 63 57 59 56 53 48 43 38 33 28 24 21 19 17 15 12 10 12 17 21 25 30 35 39 43 47 52 55 58 61 62
53 52 52 50 50 53 60 67 70 75 74 65 62 61 60 58 54 50 42 34 28 26 22 20 20 20 16 13 12 16 18 22 25 28 32 37 41 46 49 50 48 51 54
55 54 54 54 55 60 64 71 75 73 67 67 65 64 62 59 54 46 37 31 28 25 20 21 23 20 16 14 15 17 18 21 24 27 31 34 38 41 43 47 49 54 56
59 57 58 59 59 65 71 72 72 73 72 70 68 67 64 60 52 41 35 30 26 19 25 25 24 21 18 18 18 18 20 22 26 29 33 37 37 38 40 45 47 50 58
62 58 58 58 63 68 71 72 72 70 71 70 69 66 60 53 47 41 35 28 20 28 28 29 27 23 22 21 21 21 22 24 27 30 32 35 35 38 37 40 45 49 46
60 56 58 60 64 67 70 72 73 73 72 72 69 66 60 52 45 38 31 21 26 35 34 32 28 27 25 24 23 24 26 29 32 35 36 37 37 36 37 39 42 46 48
58 59 63 66 69 71 72 73 75 76 76 74 70 66 60 53 46 38 26 24 35 38 37 34 32 30 28 27 28 29 32 36 37 39 41 42 41 40 38 41 42 45 47
61 66 68 69 71 72 76 80 80 77 75 73 71 67 61 53 43 38 27 34 42 45 42 38 35 33 33 34 34 35 39 40 42 44 44 46 45 44 45 47 49 47 52
64 68 69 72 75 77 79 79 80 81 79 75 72 65 58 48 48 32 33 44 52 50 47 42 40 41 41 41 41 43 44 45 46 46 47 48 49 49 49 48 51 51 54
56 66 71 74 77 78 79 80 79 76 73 71 68 59 48 49 44 42 43 55 56 50 49 48 49 49 48 47 47 48 48 48 49 49 49 49 49 50 51 49 48 48 49
43 54 64 70 74 76 78 77 75 72 67 65 58 45 48 44 49 47 56 60 56 56 57 56 55 54 54 53 53 52 50 51 51 50 49 49 50 52 52 49 46 46 47
30 41 54 63 69 73 76 77 77 73 68 63 54 48 55 58 64 54 62 61 60 64 68 64 61 60 59 58 56 54 53 52 50 49 49 49 50 51 49 48 46 44 42
25 33 43 53 60 64 65 67 68 68 71 70 76 70 64 72 74 66 63 64 68 73 75 67 64 63 62 60 58 58 55 53 51 51 50 49 49 50 47 45 44 44 43
19 27 37 48 57 63 66 71 76 80 82 80 73 76 82 84 81 70 67 71 71 74 73 68 66 65 63 62 60 59 56 54 53 53 50 48 47 47 44 43 44 40 41
20 25 31 39 47 57 64 72 77 78 81 81 79 77 80 78 79 76 70 73 76 74 73 69 67 66 66 64 62 61 59 56 56 54 51 48 47 46 45 43 42 42 40
17 23 27 32 39 45 51 58 67 74 78 80 78 76 76 79 78 74 75 75 74 72 70 68 71 69 68 66 66 65 62 60 58 55 53 50 49 46 44 44 42 42 41
17 22 28 32 36 40 45 50 56 62 67 71 72 74 75 81 81 82 84 85 80 79 75 74 79 77 73 70 69 67 65 60 57 56 55 51 49 46 45 44 43 43 42
23 24 27 32 37 42 46 50 54 58 62 66 69 72 73 78 81 81 84 82 83 82 77 84 86 79 74 72 72 69 68 61 55 56 55 52 49 46 46 46 45 46 44
25 29 32 34 37 42 46 51 55 59 63 66 69 71 74 76 78 81 82 82 82 80 81 82 85 82 75 73 70 72 70 61 58 56 56 53 50 48 48 48 48 48 46
27 28 30 33 37 41 46 51 55 59 64 68 72 75 77 78 79 80 81 82 81 79 83 84 81 76 74 75 71 70 68 62 58 53 55 56 53 50 52 52 50 49 48
39 39 40 42 44 46 49 52 55 59 63 66 69 71 73 73 74 75 75 74 74 76 75 75 75 77 76 71 70 68 66 65 58 53 53 58 57 54 53 53 52 51 49
Wind_Direction_850mb
229 232 233 235 234 233 233 232 229 226 224 227 224 228 237 237 230 220 230 229 225 229 221 222 234 250 267 277 289 304 319 334 347 341 348 349 354 357 356 355 357 358 355
229 226 229 232 232 231 232 232 229 225 224 225 221 220 229 227 229 227 233 222 219 211 213 224 238 251 264 273 289 306 320 344 354 351 347 349 349 348 346 348 350 354 352
229 228 224 226 229 230 230 229 225 220 220 217 217 215 225 223 220 221 217 211 204 207 218 228 236 252 257 269 278 298 333 344 348 343 343 343 341 340 341 341 345 348 351
226 227 228 225 227 230 231 228 220 219 214 217 212 215 218 220 214 210 204 202 206 212 219 226 238 244 248 255 260 310 330 339 338 339 339 339 338 337 337 338 340 343 345
233 231 232 232 227 226 224 218 209 211 209 211 214 206 213 207 203 199 200 204 210 215 219 230 239 241 245 237 272 308 327 327 332 334 333 335 332 334 336 336 336 336 339
234 232 227 224 220 212 207 201 200 202 205 207 205 210 202 197 195 197 203 207 211 218 227 235 237 239 224 239 266 302 313 320 328 332 330 330 331 332 333 332 333 332 334
229 226 221 214 210 200 193 194 197 202 203 202 206 199 195 195 197 199 201 207 217 225 231 236 234 224 230 247 277 293 304 317 322 326 328 328 329 332 330 327 325 322 320
226 222 217 211 205 201 199 201 202 201 203 206 197 194 195 197 198 199 203 211 219 229 232 238 231 231 239 260 275 287 303 307 313 319 325 325 328 330 327 322 321 318 319
225 221 219 215 209 203 203 203 203 204 202 197 196 195 196 199 199 201 208 212 222 244 245 235 231 234 248 261 271 286 292 299 308 313 319 323 325 322 316 313 315 313 316
226 222 222 219 213 209 208 205 205 204 201 196 196 198 199 201 202 205 205 213 240 245 243 233 230 241 251 260 269 277 283 292 299 302 307 313 314 311 304 302 307 303 306
226 223 221 218 216 211 211 210 206 201 198 198 198 200 200 201 205 205 210 222 239 243 236 234 236 243 253 261 272 281 283 290 293 298 304 306 307 305 304 302 299 295 297
227 224 221 217 213 211 210 207 203 202 200 200 201 202 203 202 202 209 213 229 236 234 236 235 238 246 256 265 272 279 281 285 289 293 297 302 306 306 306 305 301 295 291
227 224 222 218 213 208 206 206 204 203 205 205 206 207 206 201 208 210 238 234 233 233 234 237 242 249 256 261 267 272 277 281 283 286 291 298 301 304 308 309 306 301 295
227 225 222 218 212 208 208 209 210 209 208 209 211 209 206 211 210 229 231 237 235 234 235 239 244 251 256 262 266 269 273 277 279 283 288 292 298 303 307 308 305 305 301
230 226 221 217 215 213 213 214 214 217 218 217 215 212 213 221 226 252 235 243 238 238 238 241 246 250 257 263 266 269 273 277 280 282 285 290 294 299 304 305 303 301 300
235 228 223 221 218 218 219 218 219 221 221 217 211 224 228 232 237 243 252 241 238 239 243 245 250 254 258 262 265 269 271 274 275 278 281 286 292 297 301 302 301 300 300
238 232 226 223 224 224 223 224 224 219 218 215 222 236 248 233 248 245 249 241 241 243 247 249 252 256 259 262 265 267 270 271 274 278 281 285 290 295 298 299 299 298 299
227 224 228 231 231 233 235 235 233 229 225 226 237 248 231 237 243 249 245 243 243 247 253 255 257 258 259 261 264 266 268 270 273 276 279 284 290 293 294 295 295 297 297
251 246 239 235 234 236 236 234 234 236 241 244 248 242 237 243 242 246 246 250 253 256 260 260 258 258 259 261 262 265 267 269 271 273 276 281 286 287 288 291 291 293 293
245 242 242 246 247 247 246 244 245 247 246 247 254 247 247 244 249 246 242 253 258 260 262 261 260 258 259 260 262 263 264 266 267 269 275 280 283 284 287 286 288 290 290
262 256 255 256 256 256 255 254 253 252 253 256 256 253 253 253 256 255 257 255 257 259 261 262 262 261 261 261 262 263 264 264 266 269 275 278 278 279 280 283 286 288 289
287 269 260 256 256 256 257 257 258 258 258 259 259 258 258 257 257 257 257 258 259 260 261 261 262 262 264 264 264 263 263 263 265 269 271 272 274 275 277 279 283 283 285
301 292 283 276 270 265 262 260 260 259 260 262 262 263 261 262 263 262 262 262 263 262 262 267 264 263 263 262 262 263 264 263 263 264 268 270 270 271 273 277 279 280 282
301 296 292 287 281 277 272 269 266 265 265 264 264 265 265 265 265 266 267 266 264 263 265 263 263 265 265 263 261 262 262 260 260 262 265 267 269 271 271 273 275 277 278
309 303 297 293 288 284 281 279 276 273 270 268 267 266 267 267 268 268 267 266 266 264 264 265 265 264 260 260 260 257 256 258 260 261 263 267 268 267 268 271 273 275 277
301 298 297 295 293 290 286 283 280 277 275 274 273 272 271 270 270 270 270 269 268 267 266 264 262 262 261 258 257 258 258 259 257 261 265 265 266 267 268 269 270 271 272